Location: Columbia
(38.9520°N, 92.3340°W)
Time: 22:50:41
(UTC-05:00)

FENGYUN 3A - Visible Passes

Search period start: 17 October 2017 00:00
Search period end: 27 October 2017 00:00
Orbit: 820 x 832 km, 98.4° (Epoch: 17 October)

Date Brightness Start Highest point End Pass type
(mag) Time Alt. Az. Time Alt. Az. Time Alt. Az.
17 Oct 4.4 18:51:04 10° SE 18:55:41 30° ENE 19:00:19 10° N visible
17 Oct 5.3 20:30:58 10° SSW 20:35:47 33° W 20:40:40 10° NNW visible
18 Oct 4.5 20:11:35 10° S 20:16:47 50° W 20:22:03 10° NNW visible
19 Oct 3.8 19:52:27 10° S 19:57:50 76° WSW 20:03:16 10° NNW visible
20 Oct 3.6 19:33:34 10° SSE 19:38:56 74° ENE 19:44:21 10° N visible
20 Oct 6.6 21:17:20 10° WSW 21:19:42 13° W 21:22:03 10° WNW visible
21 Oct 3.8 19:14:54 10° SE 19:20:05 50° ENE 19:25:18 10° N visible
21 Oct 6.1 20:56:43 10° SW 21:00:34 20° W 21:04:27 10° NW visible
22 Oct 4.3 18:56:30 10° SE 19:01:16 34° ENE 19:06:06 10° N visible
22 Oct 5.5 20:36:51 10° SSW 20:41:29 29° W 20:46:11 10° NW visible
23 Oct 4.8 20:17:21 10° S 20:22:28 44° W 20:27:37 10° NNW visible
24 Oct 4.0 19:58:08 10° S 20:03:30 66° W 20:08:54 10° NNW visible
25 Oct 3.6 19:39:11 10° SSE 19:44:34 84° ENE 19:50:01 10° NNW visible
25 Oct 6.7 21:24:05 10° WSW 21:25:26 11° W 21:26:48 10° WNW visible
26 Oct 3.7 19:20:27 10° SSE 19:25:43 57° ENE 19:31:01 10° N visible
26 Oct 6.3 21:02:50 10° SW 21:06:17 17° W 21:09:46 10° NW visible
